Terminal Aerodrome Forecast
Issued by NWS Binghamton, NY

Home | Current Version | Previous Version | Text Only | Print | Product List | Glossary On
Versions: 1 2 3 4 5 6 7 8 9 10 11 12 13 14 15 16 17 18 19
000
FTUS41 KBGM 301500 AAB
TAFSYR
TAF AMD
KSYR 301554Z 3016/3112 32014G25KT 3/4SM -SHSN OVC015
      TEMPO 3016/3020 1/2SM SN
     FM302300 31016G21KT 4SM -SHSN BKN015 OVC025
     FM310600 31010KT P6SM SCT025=

USA.gov is the U.S. government's official web portal to all federal, state and local government web resources and services.